Helicity
67 84 107 131 73 38 119 203 241 204 173 294 303 283 280 215 155 167 150 143 146 148 156 146 144 111 127 187 140 84 73 119 176 176 56 58 206 179 111 313 313 361 301 442
64 43 74 83 79 27 115 164 208 168 224 245 209 195 167 132 141 153 175 120 88 122 157 170 124 105 198 116 116 82 134 99 128 90 145 169 239 207 173 179 250 286 307 403
56 64 54 70 74 43 70 154 123 179 229 304 249 216 158 138 185 210 218 184 163 140 123 123 175 162 127 92 56 130 164 176 201 247 176 125 144 126 101 172 282 271 306 315
85 89 76 80 71 80 88 184 195 181 157 153 158 192 235 246 225 120 161 162 113 113 125 123 82 77 115 137 114 160 134 172 116 134 143 140 149 105 103 129 156 267 251 188
86 75 84 122 115 72 87 183 185 140 190 175 99 122 165 100 111 183 163 139 127 152 174 120 139 113 151 157 98 126 96 152 103 81 93 73 134 167 131 79 95 145 153 176
86 84 83 91 115 98 73 80 67 69 120 172 190 192 153 119 133 125 102 123 148 161 100 85 75 84 48 95 173 138 144 123 75 101 102 51 123 123 117 116 94 119 146 154
93 84 84 90 90 83 65 67 63 107 198 161 150 117 109 132 105 108 91 102 152 82 49 59 87 72 72 70 118 174 192 145 115 119 30 131 127 113 134 121 90 77 97 80
89 93 97 100 107 109 102 85 53 58 169 173 193 112 105 112 93 96 67 78 59 50 51 112 118 90 115 111 120 135 166 176 195 160 143 90 60 91 101 108 69 84 60 65
53 65 72 72 78 87 91 102 92 92 148 134 50 77 66 58 56 65 76 55 58 83 150 103 267 235 255 131 144 289 275 219 264 196 163 127 125 101 111 98 70 59 46 54
36 30 30 35 43 49 80 95 102 122 135 91 71 122 113 94 99 97 78 58 61 84 126 165 241 256 146 200 172 149 232 225 158 155 182 94 62 119 101 79 67 48 -12 30
37 19 22 25 22 21 38 73 67 115 120 79 74 33 77 133 137 110 115 74 115 157 175 178 169 190 65 112 134 166 186 146 173 168 167 69 106 96 89 61 49 28 -25 4
62 53 38 25 25 23 12 58 46 46 115 113 45 47 52 102 73 37 48 96 86 123 116 192 150 136 48 56 153 178 172 145 90 111 66 87 77 75 74 77 42 26 24 -8
56 59 60 53 35 29 50 56 37 35 75 65 96 93 92 58 135 203 113 74 113 204 228 143 63 88 98 106 132 123 150 106 126 128 62 66 56 50 102 90 45 30 39 30
44 63 59 55 55 42 40 66 47 52 82 107 -30 11 -15 0 56 157 122 100 196 148 362 193 101 91 141 81 144 112 118 113 139 106 64 75 55 48 102 60 24 35 27 33
34 24 35 53 67 62 47 60 58 94 160 191 56 5 -61 -22 46 115 109 62 63 186 270 147 3 -40 -74 97 163 119 98 81 151 94 51 91 76 76 57 41 18 26 21 2
37 32 18 30 40 45 52 0 61 145 10 -42 -90 -100 1 2 148 199 198 149 92 148 138 40 4 85 66 118 53 26 35 84 79 57 88 82 79 60 39 30 21 9 16 14
29 34 27 28 31 48 84 96 48 38 -12 -192 -180 -150 -83 65 110 181 185 137 144 159 132 147 130 5 117 79 16 0 -5 29 39 45 64 50 59 48 33 25 25 16 0 19
12 8 26 43 41 39 12 -12 36 2 -3 0 -93 -49 -17 -33 33 119 208 172 229 134 141 124 134 56 102 52 -4 12 -35 -38 71 57 57 71 76 49 21 35 32 26 8 7
26 28 37 32 27 20 25 59 20 -3 88 -38 -49 -11 -8 54 27 73 121 141 117 97 128 129 125 134 71 -7 -7 4 8 10 11 53 56 43 32 22 24 54 39 25 25 30
25 65 51 19 48 86 37 16 23 47 144 102 11 21 -23 27 108 71 83 88 109 67 77 146 111 89 58 5 -2 12 29 53 57 61 50 45 52 47 55 76 71 51 43 48
74 69 61 58 20 -65 -13 13 9 -9 -8 15 105 101 99 38 84 136 81 119 112 84 97 121 60 57 37 -43 17 66 74 41 33 64 60 66 76 82 75 57 44 45 49 49
65 52 17 -20 -23 25 37 17 12 -5 -28 53 73 155 183 121 126 129 121 89 106 57 135 127 70 25 67 30 100 156 112 96 86 61 37 32 32 56 66 59 54 57 58 59
55 15 -6 18 41 71 42 -1 -4 5 8 61 132 168 158 173 170 171 100 75 76 135 73 68 -4 46 49 56 80 73 79 85 84 71 76 75 70 64 57 66 64 57 63 82
38 11 40 85 69 37 20 26 5 -21 -93 0 49 183 125 160 170 88 69 128 123 72 6 -19 -10 32 45 65 80 63 49 63 77 91 98 99 95 86 96 101 101 96 95 101
41 17 94 39 6 -21 11 -2 -18 -58 -31 16 70 173 111 176 122 123 125 66 38 -2 0 63 91 74 64 64 75 80 86 92 108 109 116 115 93 85 101 108 107 98 96 95
27 3 36 18 -2 -15 -32 -9 -72 -77 -19 17 76 92 90 87 97 73 77 24 -21 13 64 72 111 126 118 91 89 93 104 109 116 134 135 118 99 88 86 115 129 110 87 81
-15 -83 -72 19 61 59 10 5 -51 -54 21 38 64 54 65 44 36 -14 57 24 23 48 95 110 110 105 123 140 140 137 129 136 132 131 133 120 108 108 115 129 96 91 101 99
Wind_Speed
45 43 44 45 44 35 29 42 58 40 32 56 61 72 64 58 71 53 56 57 60 62 64 70 61 55 53 41 39 51 43 55 64 58 42 42 42 46 42 50 49 40 51 42
45 44 42 44 41 27 34 49 52 39 42 65 68 67 69 61 69 70 57 56 51 56 63 62 51 51 44 42 42 48 44 53 72 70 52 48 49 42 45 42 36 36 50 37
44 42 41 41 39 38 36 44 50 45 49 56 64 70 71 67 55 59 59 64 66 66 67 59 61 60 52 48 45 46 50 52 48 51 53 57 54 48 44 39 36 34 30 49
44 43 41 38 37 39 33 42 53 48 55 57 64 64 67 62 57 45 54 60 61 66 69 64 64 62 64 52 48 43 44 61 54 47 49 49 46 43 39 31 23 28 36 37
44 44 43 42 42 38 38 47 48 48 56 50 44 47 60 73 78 69 62 61 58 58 64 66 78 78 74 66 44 42 38 61 68 67 53 43 44 42 31 23 20 23 25 28
45 46 46 45 44 37 39 43 43 47 48 47 52 56 55 56 52 57 59 70 72 73 69 72 78 82 86 81 70 47 48 54 65 64 67 74 55 42 39 32 31 29 30 26
47 48 48 47 45 41 38 42 47 53 61 52 56 57 57 61 63 67 70 71 72 62 62 71 74 80 84 82 76 58 58 54 54 70 73 55 42 40 32 30 24 30 24 35
49 49 49 48 47 45 46 44 45 49 68 62 65 64 64 71 75 81 81 72 70 70 80 89 86 82 81 72 64 60 52 52 61 59 58 51 49 35 40 42 45 40 38 33
51 51 52 50 48 48 49 50 48 50 68 67 59 71 72 79 84 91 85 75 67 71 72 74 80 78 72 64 57 53 54 44 46 46 52 48 43 33 38 41 42 40 46 19
51 50 51 52 51 48 48 49 48 53 73 72 69 71 72 67 75 84 85 75 77 59 70 77 79 84 72 92 76 57 49 47 43 40 47 44 33 31 33 41 40 33 44 5
54 53 52 52 52 51 49 52 46 52 66 77 77 78 78 70 71 79 66 68 57 53 60 68 72 78 76 80 71 58 51 42 42 39 37 43 17 30 32 32 41 54 38 4
59 59 57 53 52 53 52 58 48 49 63 78 83 78 65 65 69 72 64 63 54 43 48 57 60 81 78 79 100 62 69 51 47 31 30 32 17 29 33 39 39 41 47 19
57 57 56 55 55 54 56 60 55 58 70 87 78 72 99 91 78 62 72 77 65 53 48 60 61 75 70 85 88 74 67 51 58 47 47 25 21 18 30 40 41 34 36 40
58 59 60 61 61 58 58 64 59 57 61 76 78 77 84 76 73 36 51 71 70 64 50 66 66 61 67 88 84 77 65 47 58 59 56 41 25 27 25 38 44 35 32 35
57 58 61 64 66 66 64 67 69 64 52 63 78 87 96 93 79 34 30 37 57 69 58 69 84 75 67 63 56 76 60 55 55 54 38 32 28 20 30 40 42 41 36 39
58 62 65 67 68 68 63 58 41 30 45 65 76 67 73 70 50 25 21 49 69 66 66 74 69 71 57 60 71 60 62 58 54 46 35 30 26 28 31 37 39 41 37 36
62 68 73 74 73 70 57 53 49 45 60 63 68 64 53 56 48 43 48 53 59 62 60 65 69 64 68 70 75 54 45 50 52 46 43 44 33 26 30 40 38 38 39 36
60 68 74 78 80 83 86 89 92 91 83 67 66 67 61 48 49 51 46 55 50 53 58 59 62 59 58 81 74 71 60 52 48 44 38 34 28 29 37 40 42 43 42 38
61 70 74 77 68 68 69 62 61 61 55 65 66 66 63 48 53 45 41 37 43 42 52 53 46 62 76 73 70 64 60 59 51 44 43 45 44 46 45 46 49 51 49 41
57 57 53 55 47 53 61 57 58 59 70 78 78 67 66 58 49 46 45 41 46 56 63 43 68 76 74 76 61 51 49 50 45 47 49 46 41 39 39 44 46 49 49 44
38 43 49 53 53 52 52 55 58 60 63 66 76 83 74 61 59 48 50 39 38 57 58 61 70 79 78 81 75 61 56 54 50 48 44 42 42 45 49 51 49 44 44 43
29 41 52 52 49 51 53 57 55 59 61 59 61 58 57 57 52 47 46 47 46 56 44 62 72 60 49 53 56 53 52 54 56 54 56 54 51 48 44 45 47 43 39 38
40 45 45 44 52 62 64 63 55 52 45 47 44 48 44 46 45 41 44 51 57 42 55 62 63 46 41 46 49 48 45 46 49 50 49 48 45 42 39 40 41 38 40 31
44 45 52 52 52 59 55 50 51 51 54 54 48 43 45 40 39 40 47 45 42 54 63 63 50 36 36 39 41 42 41 39 37 37 38 37 36 35 36 36 37 38 33 29
46 46 53 58 51 47 49 49 52 52 53 53 50 41 35 36 39 40 36 44 54 55 58 49 37 31 29 31 33 33 33 32 31 31 30 30 30 29 31 33 32 29 26 23
49 56 56 51 50 49 48 49 50 47 44 50 52 45 43 40 41 45 49 50 51 45 41 35 27 27 27 25 26 25 24 23 22 23 24 24 26 26 27 27 28 26 24 22
55 60 55 55 55 54 50 50 49 46 45 47 48 47 44 37 49 53 51 51 44 31 24 22 22 22 21 20 16 15 14 14 15 16 18 20 22 23 25 26 27 26 24 23
Wind_Direction
310 298 298 298 298 297 289 287 281 289 284 277 279 277 284 293 289 298 296 300 298 300 302 303 307 310 317 327 331 327 329 330 330 337 341 347 356 354 354 352 350 344 336 307
313 304 301 301 302 290 293 287 284 291 281 277 275 282 284 287 285 285 294 296 299 304 301 304 306 307 315 321 321 324 328 325 327 336 352 0 357 357 348 341 337 327 341 330
328 320 309 306 303 299 292 290 284 285 278 280 282 285 285 281 291 290 290 292 295 297 297 297 301 303 311 312 310 313 320 316 320 323 331 339 333 336 340 341 341 335 323 303
333 333 326 323 312 304 290 287 284 286 283 280 278 283 287 291 289 293 294 294 290 292 294 296 295 297 302 303 305 307 310 309 316 318 325 328 326 327 334 335 319 332 306 326
322 328 328 323 316 309 290 286 287 291 287 293 287 285 288 284 288 291 291 290 294 295 293 292 294 295 296 303 307 302 305 307 314 320 328 333 331 333 337 327 316 322 327 326
317 317 319 321 322 314 301 300 299 294 292 294 292 291 292 293 293 292 287 291 292 292 295 296 293 292 289 290 292 294 299 307 314 319 330 333 342 2 3 3 355 350 349 353
315 313 314 315 317 318 308 303 301 294 289 292 292 295 294 291 292 289 291 291 291 297 301 300 296 291 287 282 280 284 289 299 309 313 324 335 354 353 356 4 356 0 3 11
315 315 314 313 313 312 304 304 302 299 290 292 293 297 297 296 294 290 288 289 288 291 291 290 290 288 286 279 277 275 277 285 296 309 320 328 343 7 4 5 1 11 14 18
313 314 314 313 311 310 305 300 301 298 293 290 296 294 294 293 292 289 289 290 291 289 280 283 279 277 280 280 283 285 278 275 282 303 314 330 350 4 8 10 10 10 5 19
310 312 314 313 314 312 308 303 303 297 291 292 289 289 292 295 293 291 291 291 291 283 274 273 271 270 273 268 272 278 275 274 266 281 305 324 338 1 13 9 14 15 284 260
305 306 308 310 311 312 309 305 304 297 294 291 289 287 288 292 292 288 290 296 289 282 274 274 270 268 266 267 267 265 264 268 276 280 300 320 6 6 8 16 13 356 277 252
301 301 303 305 307 308 310 302 308 304 292 289 295 292 290 288 286 281 282 283 288 280 283 276 273 267 265 261 255 259 259 265 275 274 301 326 1 0 7 359 9 17 347 243
302 302 303 303 304 305 305 303 307 307 298 295 290 288 274 250 230 262 271 271 270 275 281 280 281 271 260 253 250 255 258 261 268 278 290 295 328 350 355 348 359 21 18 5
301 300 300 300 302 303 303 299 301 302 302 297 294 284 267 275 261 250 241 228 269 272 269 266 263 270 262 253 247 252 255 257 261 271 280 301 321 336 2 346 344 12 23 15
300 301 300 298 297 298 300 298 291 289 289 294 285 273 267 264 276 285 246 226 251 249 256 257 252 258 267 257 248 243 248 254 257 268 285 300 324 347 350 342 333 341 360 334
297 298 298 296 294 294 298 299 299 312 302 280 268 266 273 282 290 272 251 259 247 250 256 250 252 250 258 249 238 247 247 252 259 269 285 303 320 328 338 336 331 326 339 344
293 293 291 290 286 284 284 277 275 284 303 275 265 263 285 286 277 276 262 255 253 249 253 254 253 258 244 245 236 243 252 254 259 268 280 287 301 313 324 314 323 332 331 335
294 291 287 283 279 273 263 251 251 258 271 269 251 255 266 273 265 260 257 246 250 252 256 259 254 250 249 237 239 244 252 260 265 271 278 293 304 304 307 310 304 310 320 330
292 289 288 284 284 272 267 272 274 260 263 248 248 249 252 261 247 259 258 259 255 259 252 254 255 248 238 234 238 246 249 255 264 271 276 280 287 290 297 299 292 294 300 320
291 292 289 284 286 281 273 265 259 257 253 247 245 257 248 248 251 254 253 257 253 247 248 266 251 247 246 238 245 253 257 259 264 268 273 279 290 298 303 300 302 300 299 309
292 285 278 279 282 275 252 247 243 242 243 248 244 237 241 238 237 248 242 258 263 250 252 248 244 241 243 237 247 259 260 260 264 270 279 285 291 295 297 297 302 307 308 310
291 285 278 273 258 241 238 236 238 236 243 251 244 246 242 237 240 251 256 258 261 253 262 250 248 255 261 249 250 257 261 261 264 270 274 281 289 296 302 304 303 306 310 314
281 269 261 249 230 225 220 217 228 236 261 258 252 244 245 242 250 259 257 254 250 265 248 243 245 262 256 250 253 256 263 267 268 274 280 285 292 301 306 309 308 309 307 320
254 248 236 228 224 219 225 236 244 257 266 251 246 244 244 250 250 258 256 257 262 249 234 233 244 260 255 255 258 258 262 269 276 281 287 294 303 308 312 315 316 310 314 316
244 238 226 220 229 237 241 247 254 255 258 248 242 245 249 247 251 254 261 253 246 249 250 257 258 264 264 262 263 263 266 272 278 286 297 308 316 321 323 325 329 327 327 325
239 231 226 233 236 236 249 256 255 266 259 229 219 230 237 244 246 241 242 240 242 255 256 254 259 256 258 263 266 268 274 282 291 299 307 315 323 333 338 342 340 340 339 334
233 227 234 235 238 241 248 261 262 263 242 224 225 229 233 239 233 226 233 233 246 265 265 252 244 247 254 262 273 281 291 304 315 324 329 334 343 355 358 358 350 353 351 350